Location: Unspecified
(0.0000°N, 0.0000°E)
Time: 23:10:13
(UTC+00:00)

Vanguard 1 - Pass Details

Date: 06 October 2020
Orbit: 649 x 3833 km, 34.3° (Epoch: 28 October)

Event Time Altitude Azimuth Distance (km) Brightness Sun altitude
Rises 15:39:20 0° 238° (WSW) 7,977 15.6 32.0°
Reaches altitude 10° 15:45:00 10° 240° (WSW) 6,889 15.6 30.6°
Maximum altitude 16:07:06 69° 320° (NW) 3,032 13.1 25.1°
Drops below altitude 10° 16:20:12 10° 42° (NE) 4,356 13.0 21.8°
Sets 16:22:55 0° 45° (NE) 5,023 13.3 21.2°
